This is the latest recevied weather packets stored in our database for station/object KD9JB-1. If no packets are shown the sender has not sent any weather packets the latest 10 day(s).
| Time | Temp. | Humidity | Pressure | Rain* | Wind** | Luminosity | Snow |
|---|---|---|---|---|---|---|---|
| 1777672904 | 16.11° C | 41% | 1016 hPa | 0 mm | - | - | - |
| 1777672604 | 15.56° C | 41% | 1016.1 hPa | 0 mm | - | - | - |
| 1777672304 | 16.11° C | 43% | 1016.2 hPa | 0 mm | - | - | - |
| 1777672005 | 16.11° C | 42% | 1016.1 hPa | 0 mm | - | - | - |
| 1777671704 | 16.67° C | 42% | 1016.1 hPa | 0 mm | - | - | - |
| 1777671405 | 16.11° C | 42% | 1016.2 hPa | 0 mm | - | - | - |
| 1777671104 | 15.56° C | 45% | 1016.2 hPa | 0 mm | - | - | - |
| 1777670805 | 15° C | 45% | 1016.3 hPa | 0 mm | - | - | - |
| 1777670504 | 16.11° C | 45% | 1016.4 hPa | 0 mm | - | - | - |
| 1777670204 | 16.11° C | 46% | 1016.4 hPa | 0 mm | - | - | - |
| 1777669905 | 15.56° C | 43% | 1016.4 hPa | 0 mm | - | - | - |
| 1777669605 | 16.11° C | 48% | 1016.4 hPa | 0 mm | - | - | - |
| 1777669305 | 15.56° C | 48% | 1016.5 hPa | 0 mm | - | - | - |
| 1777669005 | 15.56° C | 46% | 1016.5 hPa | 0 mm | - | - | - |
| 1777668705 | 16.11° C | 48% | 1016.4 hPa | 0 mm | - | - | - |
| 1777668404 | 15° C | 47% | 1016.6 hPa | 0 mm | - | - | - |
| 1777668105 | 15° C | 46% | 1016.6 hPa | 0 mm | - | - | - |
| 1777667805 | 15.56° C | 46% | 1016.7 hPa | 0 mm | - | - | - |
| 1777667505 | 16.11° C | 45% | 1016.7 hPa | 0 mm | - | - | - |
| 1777667205 | 15° C | 46% | 1016.7 hPa | 0 mm | - | - | - |
| 1777666905 | 15.56° C | 47% | 1016.8 hPa | 0 mm | - | - | - |
| 1777666605 | 15.56° C | 47% | 1016.9 hPa | 0 mm | - | - | - |
| 1777666305 | 16.11° C | 45% | 1016.9 hPa | 0 mm | - | - | - |
| 1777666005 | 16.11° C | 46% | 1016.9 hPa | 0 mm | - | - | - |
| 1777665705 | 15° C | 46% | 1016.9 hPa | 0 mm | - | - | - |
* Rain latest hour (hover to see other rain measurements)
** Current wind speed in m/s (hover to see current wind gust speed)